Location: Watson Lake
(60.1170°N, 128.8000°W)
Time: 09:38:58
(UTC-08:00)

Daily predictions for brighter satellites

Satellite Brightness Start Highest point End
(mag) Time Altitude Azimuth Time Altitude Azimuth Time Altitude Azimuth
Meteor 2-10 Rocket 3.9 16:16:50 10° S 16:22:26 60° E 16:28:11 10° NNE
Cosmos 2263 Rocket 3.4 16:19:01 10° SSE 16:23:32 25° ESE 16:28:06 10° NE
Okean 1 Rocket 3.3 16:23:46 10° N 16:28:01 48° ENE 16:32:14 10° SE
Cosmos 2154 Rocket 4.1 16:28:50 10° N 16:35:00 61° ENE 16:41:11 10° SSE
Cosmos 158 Rocket 4.1 16:31:13 10° NNW 16:36:39 67° NE 16:41:59 10° SE
Cosmos 1315 Rocket 4.4 16:33:11 10° NNW 16:37:03 40° W 16:40:56 10° SSW
CSL-04 Debris 4.2 16:32:44 10° SSE 16:38:07 72° ENE 16:43:32 10° NNW
CSL-04 Rocket 3.7 16:33:27 10° SSE 16:38:57 81° ENE 16:44:31 10° NNW
Cosmos 1048 Rocket 4.1 16:35:20 10° NNW 16:40:39 86° ENE 16:46:00 10° SSE
MSX 4.3 16:37:16 10° ESE 16:42:30 37° NE 16:47:45 10° N
CZ-4 R/B 1.9 16:38:54 10° SE 16:42:50 41° ENE 16:46:43 10° N
USA 161 1.3 16:41:46 10° NNE 16:44:20 82° WNW 16:47:03 10° SSW
Meteor 1-31 Rocket 4.2 16:40:47 10° S 16:44:31 43° W 16:48:15 10° NNW
Meteor 2-13 Rocket 4.4 16:39:17 10° NNW 16:45:27 69° ENE 16:51:33 10° SSE
Cosmos 1975 4.3 16:43:29 10° N 16:46:22 18° NE 16:49:13 10° E
NOSS 2-2 (D) 4.2 16:42:39 10° W 16:47:24 71° NNW 16:53:37 10° ENE
NOSS 2-2 (E) 4.3 16:42:40 10° W 16:47:33 70° NNW 16:53:57 10° ENE
Meteor 1-26 Rocket 4.4 16:42:43 10° SSW 16:48:21 82° WNW 16:54:08 10° NNE
Cosmos 2344 4.1 16:41:04 10° SW 16:48:54 68° SE 16:58:34 10° ENE
ADEOS II 4.2 16:44:56 10° SSW 16:49:30 29° W 16:54:06 10° NNW
Cosmos 1844 Rocket 4.5 16:48:37 10° ESE 16:50:39 12° E 16:52:42 10° ENE
Uosat 12 SS-18 rocket 4.4 16:47:15 10° WNW 16:52:01 77° NNE 16:57:45 10° ESE
CZ-2C R/B 2.7 16:48:12 10° SE 16:53:03 48° ENE 16:58:01 10° N
NOSS 2 (A) 4.4 16:50:06 10° WSW 16:53:19 79° NNW 16:55:29 14° ENE
Meteor 1-27 Rocket 4.3 16:48:19 10° SSE 16:53:40 40° E 16:58:56 10° NNE
GEOS 3 Rocket 3.6 16:49:01 10° ESE 16:54:10 89° NNE 16:59:21 10° WNW
Cosmos 1703 Rocket 4.3 16:51:44 10° SSW 16:56:07 54° WNW 17:00:33 10° N
Cosmos 1242 Rocket 3.1 16:53:05 10° SSW 16:56:44 61° WNW 17:00:26 10° NNE
Cosmos 990 Rocket 4.4 16:52:06 10° S 16:57:00 46° ESE 17:01:55 10° NE
Cosmos 2315 Rocket 4.3 16:51:40 10° SSW 16:57:52 73° WNW 17:04:07 10° NNE
Cosmos 1300 Rocket 3.6 16:56:54 10° NNW 17:01:18 83° WSW 17:05:38 10° S
Cosmos 1782 2.8 16:57:52 10° S 17:01:52 66° E 17:05:55 10° NNE
AQUARIUS 4.3 16:58:59 10° SE 17:03:20 51° ENE 17:07:44 10° N
NOSS 2-2 (C) 4.2 16:58:51 10° W 17:03:40 67° NNW 17:09:22 13° ENE
COSMOS 2487 3.6 17:02:14 10° NNW 17:05:19 25° NE 17:08:22 10° E
Cosmos 2150 Rocket 4.1 17:01:00 10° SSW 17:06:24 72° ESE 17:11:53 10° NE
MOZ.5/SAFIR/RUBIN 5/SL-8 3.7 17:04:14 10° NNE 17:08:54 72° ESE 17:13:34 10° S
MOS 1 4.3 17:03:29 10° SE 17:09:07 69° ENE 17:14:46 10° NNW
Okean 1-7 3.7 17:05:00 10° SSW 17:09:13 56° WNW 17:13:31 10° N
COSMOS 2406 3.6 17:04:13 10° NW 17:09:54 70° WSW 17:15:36 10° SSE
CORIOLIS 4.2 17:05:01 10° SE 17:10:20 59° ENE 17:15:38 10° NNW
Cosmos 1818 3.8 17:05:55 10° SW 17:11:19 62° SE 17:15:54 15° ENE
SMAP 3.1 17:07:50 10° SE 17:12:25 60° ENE 17:17:02 10° NNW
YAOGAN 1 2.6 17:08:17 10° SE 17:12:32 55° ENE 17:16:48 10° NNW
PAYLOAD A 3.9 17:07:44 10° SSE 17:12:36 81° ENE 17:17:42 10° NNW
SPOT 3 Rocket 3.5 17:07:43 10° SSE 17:12:52 68° ENE 17:18:01 10° NNW
SL-8 Rocket 4.0 17:07:18 10° N 17:13:26 57° ENE 17:19:29 10° SSE
Cosmos 1602 4.1 17:12:40 10° NNW 17:16:39 71° W 17:20:33 10° S
Cosmos 2219 4.4 17:12:29 10° WNW 17:17:27 29° NNW 17:21:41 13° NE
Cosmos 2298 Rocket 4.1 17:12:22 10° SSW 17:17:44 88° ESE 17:22:56 11° NNE
Meteor 1-5 Rocket 4.0 17:15:09 10° NNW 17:20:31 74° ENE 17:25:59 10° SSE
Genesis I 3.1 17:17:13 10° WNW 17:21:12 83° NNE 17:25:09 10° ESE
SAR-Lupe-3 4.5 17:18:33 10° NNE 17:22:08 72° ESE 17:25:42 10° SSW
Cosmos 1378 Rocket 3.9 17:18:12 10° SSE 17:22:17 43° E 17:26:23 10° NNE
Cosmos 2366 rocket 4.1 17:17:12 10° N 17:23:28 53° ENE 17:29:40 10° SE
Cosmos 1455 Rocket 3.4 17:19:50 10° N 17:24:02 42° ENE 17:28:14 10° SE
Resurs 01 Rocket 3.0 17:23:54 17° ENE 17:24:55 19° NE 17:28:00 10° N
Iridium 2 4.5 17:21:25 10° NNW 17:25:10 54° W 17:28:53 10° S
Cosmos 2218 Rocket 4.1 17:19:12 10° N 17:25:29 59° ENE 17:31:41 10° SSE
Cosmos 1743 4.2 17:23:53 10° N 17:26:25 18° NE 17:26:25 18° NE
Meteor 2-19 Rocket 4.4 17:20:50 10° NNW 17:26:53 63° ENE 17:32:54 10° SSE
Cosmos 1484 Rocket 3.2 17:24:16 10° SE 17:27:43 35° ENE 17:31:09 10° N
SJ-7 4.4 17:24:47 10° SSE 17:29:00 68° ENE 17:33:16 10° NNW
IDEFIX/ARIANE 42P 2.5 17:24:08 10° SSE 17:29:20 78° ENE 17:34:33 10° NNW
Cosmos 1959 Rocket 4.5 17:23:20 10° N 17:29:26 61° ENE 17:35:34 10° SSE
Cosmos 2227 4.4 17:23:46 10° SW 17:29:26 73° NW 17:34:21 14° NE
EO 1 Del DPAF 3.2 17:26:49 10° NNE 17:30:44 84° ESE 17:34:38 10° SSW
MTI 3.7 17:28:06 11° NNE 17:31:17 78° ESE 17:34:37 10° SSW
Cosmos 2082 Rocket 2.3 17:27:32 10° NW 17:33:06 53° NE 17:38:38 10° ESE
Timation 2 Rocket 4.2 17:27:36 10° NW 17:34:15 66° NE 17:41:06 10° ESE
Cosmos 2297 Rocket 3.2 17:30:47 10° W 17:36:05 38° NNW 17:40:28 14° NE
Cosmos 2181 Rocket 4.2 17:30:55 10° SSE 17:37:04 52° E 17:43:18 10° NNE
CZ-4 R/B 4.4 17:33:05 10° SSE 17:37:13 67° ENE 17:41:23 10° NNW
USA 234 4.2 17:32:50 15° E 17:37:21 31° SE 17:43:04 10° SSW
Cosmos 1833 Rocket 2.9 17:33:23 10° NW 17:38:56 52° NE 17:44:28 10° ESE
Cosmos 2227 Rocket 3.3 17:34:56 10° W 17:40:04 34° NNW 17:44:09 15° NE
Cosmos 1898 Rocket 3.7 17:35:14 10° SW 17:40:25 71° NW 17:45:01 13° NNE
NOSS 3-4 (A) 3.7 17:34:12 10° WNW 17:40:55 76° NNE 17:47:19 13° ESE
ALOS 3.5 17:40:25 21° ENE 17:40:57 21° NE 17:44:27 10° N
NOSS 3-4 (C) 3.7 17:34:19 10° WNW 17:41:01 76° NNE 17:47:23 13° ESE
Thor Agena Rocket 4.0 17:36:36 12° NNE 17:41:06 39° E 17:46:00 10° SSE
Cosmos 494 Rocket 4.0 17:35:52 10° NNW 17:41:07 86° NE 17:46:24 10° SSE
Cosmos 1500 3.8 17:37:45 10° N 17:41:15 33° ENE 17:44:44 10° SE
Cosmos 1536 3.3 17:38:12 10° NNW 17:42:14 63° W 17:46:16 10° S
ATLAS CENTAUR R/B 1.6 17:37:52 10° WSW 17:42:35 79° NNW 17:45:16 23° NE
Cosmos 1295 Rocket 4.5 17:36:50 10° NNW 17:43:03 88° W 17:49:11 10° S
BREEZE M DEB (TANK) 4.4 17:43:18 10° SSW 17:45:38 20° SSE 17:49:54 10° ESE
ERBS 3.1 17:43:25 10° WSW 17:46:40 42° SSE 17:48:16 24° ESE
Cosmos 1937 Rocket 3.6 17:41:55 10° SW 17:47:12 79° NW 17:51:37 15° NNE
Cosmos 1125 Rocket 3.8 17:42:41 10° S 17:47:47 49° ESE 17:51:15 20° NE
Cosmos 2341 Rocket 4.3 17:41:39 10° NNW 17:47:51 70° W 17:54:01 10° S
ASTEX 1 3.9 17:44:29 10° N 17:49:27 62° WNW 17:54:23 10° SSW
Cosmos 1606 3.2 17:46:31 10° SSW 17:50:26 64° WNW 17:54:21 10° N
Nadezhda 1 Rocket 4.1 17:44:29 10° SSW 17:50:35 79° WNW 17:56:49 10° NNE
RESURS DK-1 3.9 17:47:54 10° NW 17:51:15 22° N 17:52:25 20° NNE
Cosmos 1633 4.3 17:48:42 10° NNW 17:52:02 35° W 17:55:20 10° SSW
Cosmos 2251 Rocket 3.8 17:49:47 10° NW 17:55:11 74° WSW 18:00:31 10° SSE
ATLAS 2AS CENTAUR R/B 3.8 17:48:01 10° WNW 17:55:56 56° SW 18:03:31 10° SSE
SL-27 R/B 3.4 17:53:54 10° NW 17:57:31 53° WSW 18:01:07 10° S
SL-08 R/B 4.5 17:51:31 10° NNW 17:58:02 81° ENE 18:04:24 10° SSE
Cosmos 1821 Rocket 4.4 17:53:04 10° N 17:58:46 38° ENE 18:04:24 10° SE
SL-16 R/B 3.6 17:56:44 10° NNE 18:02:27 42° NW 18:08:11 10° WSW
NOAA 12 4.2 17:57:48 10° SE 18:02:54 51° ENE 18:08:00 10° NNW
METEOR-M 4.3 17:58:53 10° SE 18:03:58 47° ENE 18:09:05 10° NNW
Cosmos 1674 Rocket 4.2 17:59:34 10° SSW 18:03:59 58° WNW 18:08:25 10° N
Cosmos 2263 Rocket 2.1 18:01:12 10° SW 18:06:51 87° SE 18:10:36 22° NE
COSMO-SKYMED 1 3.5 18:12:01 28° ESE 18:12:01 28° ESE 18:15:08 10° SSE
Cosmos 1812 3.7 18:08:11 10° SSE 18:10:49 30° ESE 18:10:49 30° ESE
Cosmos 1544 Rocket 3.8 18:07:50 10° NNW 18:12:17 74° W 18:16:45 10° S
CZ-4 R/B 3.0 18:14:03 10° SSW 18:17:57 37° W 18:21:51 10° NNW
Meteor 2-21 4.4 18:13:29 10° NNW 18:19:43 70° ENE 18:25:53 10° SSE
Okean 3 3.6 18:15:39 10° SSW 18:19:57 75° WNW 18:23:32 14° N
CZ-3B DEB 4.1 18:17:26 10° S 18:22:11 26° ESE 18:24:12 24° E
CZ-2C R/B 4.1 18:19:02 12° NNE 18:23:08 62° WNW 18:27:32 10° SW
Cosmos 1975 2.7 18:19:25 10° NNW 18:23:34 86° E 18:27:38 10° SSE
MSX 4.2 18:18:18 10° S 18:24:02 67° WSW 18:29:48 10° NNW
USA 116 4.4 18:19:50 11° NNE 18:25:06 82° ESE 18:30:30 10° SSW
Cosmos 1975 Rocket 2.9 18:21:05 10° SSW 18:25:25 88° WNW 18:28:31 19° NNE
SJ-6B 2.7 18:26:07 54° NE 18:26:07 54° NE 18:29:39 10° N
Nadezhda 3 Rocket 4.4 18:25:28 10° SSE 18:31:10 39° E 18:34:27 23° NE
CZ-2C R/B 3.8 18:26:37 10° SSW 18:31:25 43° W 18:36:21 10° NNW
Meteor 1-12 Rocket 4.5 18:26:50 10° NNW 18:32:34 72° WSW 18:38:21 10° S
Cosmos 1844 Rocket 2.9 18:27:53 10° S 18:33:14 47° ESE 18:34:31 40° E
Cosmos 1238 Rocket 4.4 18:31:34 10° S 18:32:13 15° S 18:32:13 15° S
Intercosmos 25 3.1 18:30:26 10° NNW 18:34:35 65° ENE 18:34:35 65° ENE
Meteor 1-27 Rocket 4.4 18:31:13 10° SW 18:36:55 56° WNW 18:42:32 10° NNE
Helios 1A 4.4 18:39:40 25° N 18:39:40 25° N 18:41:45 10° N
NOSS 2-2 (D) 4.4 18:33:27 10° WNW 18:38:41 67° NNE 18:41:05 39° E
NOSS 2-2 (E) 4.4 18:33:27 10° WNW 18:38:50 69° NNE 18:41:26 38° E
SL-24 DEB 4.1 18:34:29 10° N 18:39:19 76° E 18:44:04 10° S
COSMOS 2487 2.8 18:37:35 10° NW 18:41:11 65° WSW 18:42:43 31° S
Cosmos 1536 Rocket 3.6 18:37:34 10° S 18:41:47 55° ESE 18:41:47 55° ESE
Meteor 2-14 Rocket 4.3 18:37:25 10° NNW 18:43:38 75° ENE 18:49:48 10° SSE
Cosmos 1844 3.9 18:38:43 10° S 18:43:57 43° ESE 18:44:16 43° ESE
Meteor 1-15 Rocket 4.4 18:45:18 10° NNW 18:51:08 53° ENE 18:52:18 46° E
NOSS 2-2 (C) 4.4 18:49:38 10° WNW 18:54:57 71° NNE 18:56:47 47° E
Cosmos 1818 3.8 18:49:34 10° WSW 18:55:01 63° NNW 18:56:33 45° NE
Cosmos 407 Rocket 3.4 18:53:58 10° NNW 18:59:04 59° NE 18:59:06 59° NE
Meteor 2-21 Rocket 4.4 18:53:20 10° NNW 18:59:37 85° WSW 19:05:49 10° S
SKYMED 2 3.9 19:00:38 50° SSE 19:00:38 50° SSE 19:04:00 10° S
FengYun 1-2 T 4.1 18:56:47 26° SE 19:00:02 73° ENE 19:05:43 10° NNW
Resurs 01 Rocket 1.8 19:01:29 58° NNE 19:01:29 58° NNE 19:05:12 10° NNW
Cosmos 2278 Rocket 3.0 18:56:27 10° S 19:00:22 35° SE 19:00:22 35° SE
Cosmos 676 Rocket 4.2 18:56:42 10° NNW 19:01:31 50° NNE 19:01:31 50° NNE
Cosmos 1484 Rocket 4.2 18:58:43 10° SSW 19:02:13 36° W 19:05:43 10° NNW
Cosmos 1743 3.8 18:59:09 10° NNW 19:01:37 37° NNW 19:01:37 37° NNW
Cosmos 2219 4.2 18:58:08 10° NW 19:03:13 31° NNE 19:03:36 31° NNE
Cosmos 2344 4.1 18:55:11 10° W 19:03:34 76° N 19:08:34 36° ENE
Meteor 2-16 Rocket 4.3 18:59:08 10° NNW 19:05:17 90° S 19:11:23 10° SSE
Spot 2 Rocket 3.4 19:05:04 46° SSE 19:06:39 81° ENE 19:11:48 10° NNW
Cosmos 1954 Rocket 4.4 19:06:19 10° NNW 19:10:37 45° NNE 19:10:37 45° NNE
Cosmos 372 Rocket 4.1 19:09:39 10° SW 19:14:55 72° NW 19:16:18 49° NNE
APEX 3.9 19:11:22 10° SW 19:17:14 76° NW 19:17:45 68° N
Cosmos 2082 Rocket 2.9 19:11:48 10° NW 19:17:18 53° WSW 19:21:37 16° S
ALOS 2.7 19:18:58 52° N 19:18:58 52° N 19:22:33 10° NNW
Cosmos 1535 Rocket 4.5 19:11:36 10° NNW 19:18:01 87° W 19:24:20 10° S
FENGYUN 3A 3.5 19:18:32 67° SE 19:19:16 82° ENE 19:24:41 10° NNW
Thor Agena Rocket 4.2 19:17:11 20° N 19:20:36 53° WNW 19:25:40 10° SW
USA 234 3.4 19:20:11 51° ESE 19:21:18 58° SSE 19:27:45 10° WSW
Cosmos 2297 Rocket 3.5 19:16:44 10° WNW 19:21:35 28° N 19:22:16 27° NNE
ATLAS CENTAUR R/B 2.3 19:17:39 10° W 19:21:34 44° NNW 19:21:34 44° NNW
Cosmos 1934 Rocket 3.8 19:16:40 10° NNW 19:22:50 85° ENE 19:26:26 27° SSE
Cosmos 1833 Rocket 3.3 19:17:30 10° NW 19:23:02 55° WSW 19:26:17 24° S
ERBS 4.3 19:19:49 10° W 19:21:39 27° WSW 19:21:39 27° WSW
Cosmos 2227 Rocket 3.4 19:20:49 10° NW 19:25:40 28° N 19:25:57 28° N
Spot 1 4.4 19:27:06 78° SSW 19:27:23 82° WSW 19:32:33 10° NNW
Cosmos 1125 Rocket 4.3 19:24:47 10° WSW 19:29:58 49° NW 19:31:32 38° N
RESURS DK-1 4.2 19:26:21 10° NW 19:28:20 24° NNW 19:28:20 24° NNW
NOSS 3-4 (A) 4.1 19:25:13 10° WNW 19:31:53 60° SW 19:34:47 36° SSE
NOSS 3-4 (C) 4.1 19:25:19 10° WNW 19:32:00 61° SW 19:34:52 36° SSE
H-2A R/B 4.4 19:37:54 11° N 19:37:54 11° N 19:38:17 10° N
Cosmos 1190 Rocket 4.2 19:38:39 10° NW 19:43:39 71° W 19:43:39 71° W
Cosmos 1821 Rocket 4.3 19:38:31 10° NNW 19:44:35 64° W 19:50:36 10° S
COSMO-SKYMED 1 3.9 19:49:14 35° WSW 19:49:14 35° WSW 19:51:58 10° SW
Cosmos 1140 Rocket 4.5 19:43:28 10° NNW 19:46:44 37° NNW 19:46:44 37° NNW
Cosmos 2263 Rocket 3.2 19:46:07 10° W 19:51:23 39° NNW 19:52:18 36° N
Meteor 2-9 Rocket 4.5 19:47:20 10° NNW 19:52:52 63° W 19:53:31 58° SW
Cosmos 1605 Rocket 4.0 19:48:25 10° NNW 19:54:50 84° W 19:55:14 78° SSW
Nadezhda 3 Rocket 4.4 20:10:17 10° SSW 20:16:26 60° WNW 20:22:43 10° N
Cosmos 1844 Rocket 3.4 20:11:34 10° WSW 20:16:12 52° WNW 20:16:12 52° WNW
Resurs 01 Rocket 4.0 20:39:04 21° WNW 20:39:04 21° WNW 20:41:20 10° NW
Cosmos 2278 Rocket 3.9 20:39:56 10° SW 20:42:15 25° WSW 20:42:15 25° WSW
CZ-3B DEB 3.7 20:48:10 10° WSW 20:53:06 55° SSW 20:53:06 55° SSW
USA 234 4.3 21:07:32 38° WSW 21:07:32 38° WSW 21:11:24 10° W
Cosmos 2297 Rocket 4.2 21:01:49 10° NW 21:04:04 22° NNW 21:04:04 22° NNW
Cosmos 2227 Rocket 4.3 21:05:42 10° NW 21:07:46 21° NNW 21:07:46 21° NNW
Cosmos 2344 4.2 21:09:55 10° WNW 21:18:34 81° NNW 21:18:34 81° NNW
Cosmos 2263 Rocket 4.5 21:31:55 10° WNW 21:34:00 19° NW 21:34:00 19° NW
